Charity Relay Marathon
Skip Navigation Links
Results
Team Results
Event Stats
08 June 2014
HyperLink
Page 1 of 2 (54 items)
[1]2
Pos
Bib No
Fav
Share
Print
Name
Time
Club
Pace
Runner 1
O/Pos
Runner 2
O/Pos
Runner 3
O/Pos
Runner 4
O/Pos
Runner 5
O/Pos
1251The Ba Flyers A 1:25:06.2The BA Flyers18.5 m/hr16:57.3318:01.8217:48.7117:19.7114:58.31
2252The Ba Flyers B 1:29:15.9The BA Flyers17.6 m/hr17:02.5618:43.4519:29.7317:29.8216:30.42
3111Brussels Sprouts A 1:39:32.7Brussels Sprouts15.8 m/hr17:02.1518:45.9622:26.51219:49.61021:28.427
4101Harcourt Harriers A 1:43:14.7Harcourt Harriers15.2 m/hr19:59.51920:37.81622:10.21119:15.9521:11.025
5242The Tony Trouncers B 1:43:35.9The Tony Trouncers15.2 m/hr22:09.12716:33.6130:17.34018:01.1316:34.53
6231Claremont Crew - A 1:43:38.3Claremont Crew15.2 m/hr23:28.53018:58.0721:27.6919:44.1920:00.015
7112Brussels Sprouts B 1:45:09.4Brussels Sprouts14.9 m/hr16:58.3418:33.3422:01.61024:31.53423:04.535
8222Tottering Holtspurs B 1:45:29.9Tottering Holtspurs14.9 m/hr18:43.71723:26.53222:39.21819:35.5721:04.723
9211Ginger Ninjas A 1:46:29.1Ginger Ninjas14.8 m/hr17:26.7926:54.04021:19.7820:14.81420:33.617
10181Vapourflow A 1:47:11.0Vapourflow14.7 m/hr17:56.91219:33.1920:00.3520:04.51229:36.047
11241The Tony Trouncers A 1:48:01.4The Tony Trouncers14.6 m/hr20:03.72021:50.62022:28.31421:57.11921:41.630
12202Gatwick Afs - B 1:49:12.5Gatwick AFS14.4 m/hr18:25.91520:00.11128:07.43721:29.91821:09.024
13232Claremont Crew - A 1:50:24.3Claremont Crew14.2 m/hr21:11.42623:21.02824:18.22419:29.0622:04.532
14102Harcourt Harriers B 1:50:45.7Harcourt Harriers14.2 m/hr22:54.92918:12.3322:27.91323:44.02823:26.437
15131Star Runners White A 1:51:21.9Star Runners White14.1 m/hr24:28.43520:00.51222:34.71721:05.71723:12.336
16212Ginger Ninjas B 1:52:13.0Ginger Ninjas14.0 m/hr20:04.82120:10.61324:35.72526:31.93920:49.719
1752Active Health Clinics 3b 1:52:47.4Active Health Clinics 313.9 m/hr20:35.22520:23.71419:20.5224:30.23327:57.746
1822The Picnic Runners B 1:52:58.9The Picnic Runners13.9 m/hr16:20.6220:28.11524:45.22627:34.54123:50.339
19152Disciples B 1:53:03.3Disciples13.9 m/hr23:57.83223:21.12924:56.72720:48.31619:59.314
20151Disciples A 1:53:09.6Disciples13.9 m/hr18:17.11419:32.5825:27.63126:20.73723:31.438
21201Gatwick Afs - A 1:54:50.4Gatwick AFS13.7 m/hr20:17.12221:32.31829:24.73824:29.43219:06.79
2211Super-Fast 4g - A 1:55:18.1Super-Fast 4G13.6 m/hr20:20.52322:17.82231:19.64322:53.82418:26.28
2372Big Deal Training White B 1:55:30.5Big Deal Training White13.6 m/hr20:24.92422:23.72429:43.83922:17.02220:40.918
24141Apostles A 1:55:45.3Apostles13.6 m/hr19:00.31824:58.03725:46.43224:01.83021:58.531
2562Big Deal Training Blue B 1:56:46.3Big Deal Training Blue13.5 m/hr23:55.53124:09.13622:30.61622:09.12124:01.840
26132Star Runners White B 1:56:48.0Star Runners White13.5 m/hr24:28.83620:00.11026:09.83426:53.74019:15.410
2721The Picnic Runners A 1:56:50.0The Picnic Runners13.5 m/hr18:26.11627:14.04135:13.24418:53.3417:03.24
28192A113 - B 1:57:30.1A11313.4 m/hr27:35.84327:20.74319:37.6420:13.21322:42.733
29142Apostles B 1:58:19.1Apostles13.3 m/hr24:08.73330:43.54922:30.31519:42.0821:14.426
30221Tottering Holtspurs A 2:00:12.4Tottering Holtspurs13.1 m/hr16:13.8122:40.82538:34.34722:23.82320:19.516
31121Star Runners Purple A 2:01:07.7Star Runners Purple13.0 m/hr26:48.44229:23.24620:09.6623:56.02920:50.220
3241Active Health Clinics 2a 2:03:08.3Active Health Clinics 212.8 m/hr22:47.92822:22.32325:14.23026:18.43626:25.545
3371Big Deal Training White A 2:03:27.6Big Deal Training White12.7 m/hr17:07.7823:58.23535:29.04524:02.63122:50.034
34171Fit For Life A 2:04:17.4Fit for Life12.6 m/hr17:51.81122:04.62130:38.74132:47.44420:54.721
3512Super-Fast 4g - B 2:05:53.7Super-Fast 4G12.5 m/hr17:45.31029:05.04535:29.84623:34.72719:58.713
36191A113 - A 2:05:58.9A11312.5 m/hr28:28.84427:59.34425:02.52823:25.42621:02.722
3742Active Health Clinics 2b 2:06:07.6Active Health Clinics 212.5 m/hr30:09.84626:16.03923:37.52121:57.52024:06.641
38122Star Runners Purple B 2:06:46.3Star Runners Purple12.4 m/hr26:46.74129:23.84730:44.44220:00.91119:50.412
3961Big Deal Training Blue A 2:07:01.3Big Deal Training Blue12.4 m/hr17:03.7723:51.23423:57.32240:30.14821:38.829
40162Tps B 2:12:41.5TPS11.8 m/hr40:23.15226:13.13827:49.53620:44.01517:31.65
4182Dicko'S Dolphins B 2:13:13.3Dicko's Dolphins11.8 m/hr31:05.44823:23.63023:15.32037:09.84618:19.07
42182Vapourflow B 2:13:20.4Vapourflow11.8 m/hr24:13.83422:45.62625:11.92927:36.14233:32.848
4332Active Health Clinics 1b 2:14:54.7Active Health Clinics 111.7 m/hr34:14.14932:18.15020:22.2726:29.03821:31.028
44161Tps A 2:15:41.9TPS11.6 m/hr40:22.95130:03.24823:58.72323:16.42518:00.66
4551Active Health Clinics 3a 2:17:12.7Active Health Clinics 311.5 m/hr18:09.81323:46.43341:19.14834:19.64519:37.611
46172Fit For Life B 2:18:27.2Fit for Life11.4 m/hr25:41.33833:46.85226:47.63525:55.33526:16.044
4781Dicko'S Dolphins A 2:20:05.7Dicko's Dolphins11.2 m/hr31:05.14723:24.73123:13.91937:11.04725:10.843
4831Active Health Clinics 1a 2:30:00.5Active Health Clinics 110.5 m/hr34:14.75032:49.05125:52.43332:05.34324:58.942
91 EnteredCrowne Plaza Marlow m/hr
92 EnteredCrowne Plaza Marlow m/hr
Page 1 of 2 (54 items)
[1]2
fb